Regional Weather Roundup
Issued by NWS

Home | Current Version | Previous Version | Graphics & Text | Print | Product List | Glossary On
Versions: 1 2 3 4 5 6 7 8 9 10 11 12 13 14 15 16 17 18 19 20 21 22 23 24 25 26 27 28 29 30 31 32 33 34 35 36 37 38 39 40 41 42 43 44 45 46 47 48 49 50
000
ASUS43 KIND 241309
RWRIN

WEATHER ROUNDUP FOR INDIANA
NATIONAL WEATHER SERVICE INDIANAPOLIS IN
900 AM EDT FRI MAR 24 2017

NOTE: "FAIR" INDICATES FEW OR NO CLOUDS BELOW 12,000 FEET WITH NO
SIGNIFICANT WEATHER AND/OR OBSTRUCTIONS TO VISIBILITY.

* - STATION DOES NOT REPORT WEATHER SUCH AS PRECIPITATION OR FOG.

+ - STATION NOT QUALITY CONTROLLED BY THE NATIONAL WEATHER SERVICE.
    USE DATA WITH CAUTION...ESPECIALLY DEWPOINT AND RELATIVE
    HUMIDITY OBSERVATIONS.

INZ001>003-010>013-019-020-241400-
NORTHWEST INDIANA

CITY           SKY/WX    TMP DP  RH WIND       PRES   REMARKS
GARY /AIRPORT/ PTSUNNY   57  43  58 S15G28    29.96S
KNOX *+        MOSUNNY   52  27  37 S12       30.00S
LA PORTE +     CLOUDY    51  44  77 S12G17    29.99F
MICHIGAN CITY+ CLOUDY    54  45  71 S16G22    29.97F
MONTICELLO +   CLOUDY    55  46  70 S10       30.05S
RENSSELAER +   CLOUDY    54  46  76 S15G21    30.03S
VALPARAISO     MOSUNNY   55  47  74 SW16      30.00R

$$

LMZ046-743>745-241400-
SOUTHERN LAKE MICHIGAN

STATION/POSITION TIME  TEMP    WIND        PRES    WAVE
                       AIR SEA DIR/SP/G            HT
                 (UTC) (F)     (DEG/KT/KT) (MB)    (FT)
BURNS HARBOR     1240   55     190/ 22/ 28 1014.6S
MICHIGAN CITY    1240   56     170/ 23/ 30   N/A

$$

INZ004-005-014>016-021>024-241400-
NORTH CENTRAL INDIANA

CITY           SKY/WX    TMP DP  RH WIND       PRES   REMARKS
ELKHART        MOSUNNY   50  41  71 S7        30.00F
GOSHEN         MOSUNNY   53  41  63 S14       30.02S
LOGANSPORT +   CLOUDY    48  43  81 S7        30.08R
PERU/GRISSOM   CLOUDY    52  46  81 S10       30.07R
ROCHESTER +    CLOUDY    54  45  71 S13       30.05S
SOUTH BEND     CLOUDY    52  44  74 SW15      30.00F
WARSAW +       MOSUNNY   52  41  66 S8        30.04S

$$

INZ006>009-017-018-025>027-241400-
NORTHEAST INDIANA

CITY           SKY/WX    TMP DP  RH WIND       PRES   REMARKS
ANGOLA *+      SUNNY     52  39  62 S10       30.02F
AUBURN +       MOSUNNY   52  43  71 S8        30.06F
FORT WAYNE     PTSUNNY   52  44  74 S15       30.07F
HUNTINGTON +   MOSUNNY   52  44  75 S9        30.08R
KENDALLVILLE + CLOUDY    51  43  73 S13       30.04F

$$

INZ028-029-035-036-043>045-051>053-241400-
WEST CENTRAL INDIANA

CITY           SKY/WX    TMP DP  RH WIND       PRES   REMARKS
CRAWFORDSVL +  CLOUDY    56  49  79 S14       30.09R
GREENCASTLE +  MOSUNNY   59  48  67 SW8       30.11R
LAFAYETTE      CLOUDY    57  48  72 S6        30.07R
TERRE HAUTE    SUNNY     59  49  69 S13G30    30.10R

$$

INZ030>032-037>040-046>048-054>057-064-065-241400-
CENTRAL INDIANA

CITY           SKY/WX    TMP DP  RH WIND       PRES   REMARKS
ANDERSON       SUNNY     54  45  71 S12       30.12
CP ATTERBURY + MOSUNNY   55  45  67 S13G20    30.14R
COLUMBUS       SUNNY     54  46  76 S10       30.14R
FISHERS *+     CLOUDY    52  46  82 S7        30.11
FRANKFORT +    CLOUDY    59  50  73 SW12      30.11R
GREENWOOD *+   CLOUDY    56  47  71 S8        30.13R
INDIANAPOLIS   PTSUNNY   56  46  69 S8        30.12R
-EAGLE CREEK   MOSUNNY   57  46  66 S6        30.10R
KOKOMO +       CLOUDY    50  43  77 S12       30.10R
MARION +       PTSUNNY   52  44  75 S10       30.11R
MT COMFORT *+  CLOUDY    52  45  76 S9        30.12R
SHELBYVILLE    CLOUDY    56  44  64 S14       30.13R
ZIONSVILLE +   MOSUNNY   53  46  75 S9        30.10R

$$

INZ033-034-041-042-049-050-058-059-241400-
EAST CENTRAL INDIANA

CITY           SKY/WX    TMP DP  RH WIND       PRES   REMARKS
MUNCIE         PTSUNNY   55  44  66 S14       30.12R
RICHMOND +     CLOUDY    50  43  76 S13       30.17R

$$

INZ060-061-067>069-081>083-085>088-241400-
SOUTHWEST INDIANA

CITY           SKY/WX    TMP DP  RH WIND       PRES   REMARKS
EVANSVILLE     SUNNY     61  52  72 S8        30.14R
HUNTINGBURG *+ SUNNY     59  51  75 S13       30.16R
WASHINGTON +   SUNNY     58  48  69 MISG      30.13R

$$

INZ062-063-066-070>080-084-089>092-241400-
SOUTH CENTRAL AND SOUTHEAST INDIANA

CITY           SKY/WX    TMP DP  RH WIND       PRES   REMARKS
BEDFORD +      SUNNY     55  45  67 S8        30.14R
BLOOMINGTON    SUNNY     61  49  64 S14       30.13R
MADISON *+     SUNNY     57  41  54 S18G24    30.20R
NORTH VERNON + MOSUNNY   55  43  62 S13       30.16R
SEYMOUR +      MOSUNNY   57  46  67 S14       30.16R

$$




USA.gov is the U.S. government's official web portal to all federal, state and local government web resources and services.